Faith, SD

12:30 AM MDT on April 28, 2017 (GMT -0600)
Faith

Weather History for KD07 - April, 2013

Change the Weather History Date:

Monday, April 22, 2013

  Actual Average Record
Temperature  
Mean Temperature 27 °F 48 °F  
Max Temperature 36 °F 60 °F 82 °F (2009)
Min Temperature 17 °F 35 °F 17 °F (2013)
Degree Days  
Heating Degree Days 38 18  
Month to date heating degree days 694 483  
Since 1 July heating degree days 7103 7174  
Cooling Degree Days 0 0  
Month to date cooling degree days 0 0  
Year to date cooling degree days 0 0  
Moisture  
Dew Point 21 °F    
Average Humidity 76    
Maximum Humidity 100    
Minimum Humidity 51    
Precipitation  
Precipitation 0.34 in 0.07 in 0.61 in (2011)
Month to date precipitation 1.18 0.99  
Year to date precipitation 2.18 2.59  
Sea Level Pressure  
Sea Level Pressure 30.39 in    
Wind  
Wind Speed 14 mph (NNE)    
Max Wind Speed 22 mph    
Max Gust Speed 24 mph    
T = Trace of Precipitation, MM = Missing Value Source: NWS Daily Summary

Daily Weather History Graph

Daily Weather History Graph

Search for Another Location

Airport or City:

Trip Planner

Search our weather history database for the weather conditions in past years. The results will help you decide how hot, cold, wet, or windy it might be!

Date:

Astronomy

Apr. 22, 2013 Rise Set
Actual Time 5:50 AM MDT 7:42 PM MDT
Civil Twilight 5:19 AM MDT 8:14 PM MDT
Nautical Twilight 4:41 AM MDT 8:52 PM MDT
Astronomical Twilight 3:59 AM MDT 9:35 PM MDT
Moon 4:26 PM MDT (4/22) 3:55 AM MDT (4/22)
Length of Visible Light 14h 54m
Length of Day
13h 51m
Waxing Gibbous, 88% of the Moon is Illuminated
Apr 22
Waxing Gibbous
Apr 25
Full
May 2
Last Quarter
May 9
New
May 17
First Quarter

Hourly Weather History & Observations

Time (MDT) Temp. Windchill Dew Point Humidity Pressure Visibility Wind Dir Wind Speed Gust Speed Precip Events Conditions
12:56 AM 32.0 °F 24.2 °F 24.1 °F 73% 30.26 in - NNE 9.2 mph - N/A   Unknown
1:56 AM 28.9 °F 16.5 °F 28.9 °F 100% 30.25 in - NNE 18.4 mph - N/A   Unknown
2:56 AM 27.0 °F 14.7 °F 27.0 °F 100% 30.27 in - NNE 16.1 mph - 0.08 in   Unknown
3:56 AM 27.0 °F 14.7 °F 27.0 °F 100% 30.26 in - NE 16.1 mph - 0.07 in   Unknown
4:56 AM 27.0 °F 15.6 °F 26.1 °F 96% 30.28 in - NNE 13.8 mph - 0.05 in   Unknown
5:56 AM 26.1 °F 15.6 °F 26.1 °F 100% 30.32 in - NNE 11.5 mph - 0.07 in   Unknown
6:56 AM 25.0 °F 12.6 °F 24.1 °F 96% 30.35 in - NNE 15.0 mph - 0.04 in   Unknown
7:56 AM 25.0 °F 13.1 °F 24.1 °F 96% 30.38 in - NNE 13.8 mph - 0.02 in   Unknown
8:56 AM 25.0 °F 12.2 °F 24.1 °F 96% 30.40 in - North 16.1 mph - 0.01 in   Unknown
9:56 AM 26.1 °F 12.7 °F 21.9 °F 84% 30.41 in - North 18.4 mph - N/A   Unknown
11:56 AM 28.0 °F 14.9 °F 17.1 °F 63% 30.43 in - North 19.6 mph - N/A   Unknown
12:56 PM 30.0 °F 18.7 °F 18.0 °F 61% 30.42 in - North 16.1 mph - N/A   Unknown
1:56 PM 33.1 °F 21.9 °F 19.9 °F 59% 30.42 in - North 18.4 mph - N/A   Unknown
2:56 PM 34.0 °F 23.8 °F 19.9 °F 56% 30.42 in - North 16.1 mph - N/A   Unknown
3:56 PM 35.1 °F 25.2 °F 19.0 °F 52% 30.41 in - North 16.1 mph - N/A   Unknown
4:56 PM 34.0 °F 23.8 °F 17.1 °F 50% 30.41 in - North 16.1 mph - N/A   Unknown
5:56 PM 33.1 °F 23.4 °F 17.1 °F 52% 30.42 in - North 13.8 mph - N/A   Unknown
6:56 PM 30.9 °F 20.2 °F 17.1 °F 57% 30.44 in - North 15.0 mph - N/A   Unknown
7:56 PM 28.0 °F 18.6 °F 17.1 °F 63% 30.46 in - North 10.4 mph - N/A   Unknown
8:56 PM 26.1 °F 17.6 °F 17.1 °F 69% 30.48 in - NNE 8.1 mph - N/A   Unknown
9:56 PM 21.9 °F 12.5 °F 15.1 °F 75% 30.51 in - NNE 8.1 mph - N/A   Unknown
10:56 PM 21.9 °F 14.5 °F 14.0 °F 72% 30.49 in - NNE 5.8 mph - N/A   Unknown
11:56 PM 21.0 °F 13.4 °F 12.9 °F 71% 30.47 in - North 5.8 mph - N/A   Unknown